Weather History for KFAR - October, 2012

Change the Weather History Date:

Sunday, October 14, 2012

  Actual Average Record
Temperature  
Mean Temperature 44 °F 47 °F  
Max Temperature 56 °F 57 °F 86 °F (1962)
Min Temperature 32 °F 36 °F 16 °F (1937)
Degree Days  
Heating Degree Days 21 18  
Month to date heating degree days 295 220  
Since 1 July heating degree days 525 490  
Cooling Degree Days 0 0  
Month to date cooling degree days 0 0  
Year to date cooling degree days 795 548  
Moisture  
Dew Point 33 °F    
Average Humidity 68    
Maximum Humidity 89    
Minimum Humidity 47    
Precipitation  
Precipitation 0.00 in 0.07 in 1.27 in (2013)
Month to date precipitation 0.43 1.10  
Year to date precipitation 11.77 19.73  
Snow  
Snow 0.00 in 0.00 in 0.60 in (1909)
Month to date snowfall 1.4 0.1  
Since 1 July snowfall 1.4 0.1  
Since 1 September snowfall 1.4 0.1  
Snow Depth 0.00 in    
Sea Level Pressure  
Sea Level Pressure 29.93 in    
Wind  
Wind Speed 9 mph (NNW)    
Max Wind Speed 17 mph    
Max Gust Speed 20 mph    
Visibility 10 miles    
Events      
T = Trace of Precipitation, MM = Missing Value Source: NWS Daily Summary

Daily Weather History Graph

Daily Weather History Graph

Search for Another Location

Airport or City:

Trip Planner

Search our weather history database for the weather conditions in past years. The results will help you decide how hot, cold, wet, or windy it might be!

Date:

Astronomy

Oct. 14, 2012 Rise Set
Actual Time 7:44 AM CDT 6:40 PM CDT
Civil Twilight 7:13 AM CDT 7:11 PM CDT
Nautical Twilight 6:38 AM CDT 7:46 PM CDT
Astronomical Twilight 6:03 AM CDT 8:21 PM CDT
Moon 6:44 AM CDT (10/14) 6:00 PM CDT (10/14)
Length of Visible Light 11h 57m
Length of Day
10h 56m
Waning Crescent, 1% of the Moon is Illuminated
Oct 14
Waning Crescent
Oct 15
New
Oct 21
First Quarter
Oct 29
Full
Nov 6
Last Quarter

Hourly Weather History & Observations

Time (CDT) Temp. Windchill Dew Point Humidity Pressure Visibility Wind Dir Wind Speed Gust Speed Precip Events Conditions
12:53 AM 39.9 °F 33.9 °F 30.9 °F 70% 29.87 in 10.0 mi NNW 9.2 mph - N/A   Clear
1:53 AM 39.0 °F 31.8 °F 30.9 °F 73% 29.87 in 10.0 mi NNW 11.5 mph - N/A   Clear
2:53 AM 37.9 °F 30.0 °F 32.0 °F 79% 29.88 in 10.0 mi NNW 12.7 mph - N/A   Clear
3:53 AM 37.0 °F 29.3 °F 30.9 °F 79% 29.89 in 10.0 mi NNW 11.5 mph - N/A   Clear
4:53 AM 37.0 °F 29.3 °F 32.0 °F 82% 29.91 in 10.0 mi NNW 11.5 mph - N/A   Clear
5:53 AM 36.0 °F 28.0 °F 32.0 °F 86% 29.93 in 10.0 mi North 11.5 mph - 0.00 in   Clear
6:53 AM 35.1 °F 28.6 °F 30.9 °F 85% 29.93 in 10.0 mi North 8.1 mph - N/A   Clear
7:53 AM 33.1 °F 25.5 °F 30.0 °F 89% 29.95 in 10.0 mi NNW 9.2 mph - N/A   Clear
8:53 AM 36.0 °F 28.5 °F 32.0 °F 86% 29.96 in 10.0 mi NNW 10.4 mph - N/A   Partly Cloudy
9:19 AM 37.4 °F 29.8 °F 32.0 °F 81% 29.95 in 10.0 mi North 11.5 mph - N/A   Scattered Clouds
9:32 AM 37.4 °F 28.9 °F 33.8 °F 87% 29.95 in 10.0 mi NNW 13.8 mph 19.6 mph N/A   Mostly Cloudy
9:41 AM 39.2 °F 31.2 °F 33.8 °F 81% 29.95 in 10.0 mi NNW 13.8 mph - N/A   Scattered Clouds
9:53 AM 39.9 °F 31.4 °F 34.0 °F 79% 29.98 in 10.0 mi NNW 16.1 mph - N/A   Partly Cloudy
10:53 AM 45.0 °F 38.2 °F 35.1 °F 68% 29.96 in 10.0 mi NNW 15.0 mph - N/A   Clear
11:53 AM 48.9 °F - 36.0 °F 61% 29.96 in 10.0 mi NNW 11.5 mph - N/A   Clear
12:53 PM 52.0 °F - 37.0 °F 57% 29.94 in 10.0 mi NNW 15.0 mph - N/A   Clear
1:53 PM 54.0 °F - 37.0 °F 53% 29.93 in 10.0 mi NNW 11.5 mph - N/A   Clear
2:53 PM 55.4 °F - 37.4 °F 51% 29.90 in 10.0 mi NNW 10.4 mph - N/A   Clear
3:53 PM 55.0 °F - 36.0 °F 49% 29.93 in 10.0 mi NNW 10.4 mph - N/A   Clear
4:53 PM 55.0 °F - 36.0 °F 49% 29.93 in 10.0 mi NNW 10.4 mph - N/A   Clear
5:53 PM 54.0 °F - 36.0 °F 51% 29.93 in 10.0 mi NNW 9.2 mph - N/A   Clear
6:53 PM 46.9 °F - 34.0 °F 61% 29.94 in 10.0 mi North 5.8 mph - N/A   Clear
7:53 PM 43.0 °F - 33.1 °F 68% 29.95 in 10.0 mi Calm Calm - N/A   Clear
8:53 PM 44.1 °F - 34.0 °F 68% 29.95 in 10.0 mi Calm Calm - N/A   Clear
9:53 PM 39.9 °F - 32.0 °F 73% 29.96 in 10.0 mi Calm Calm - N/A   Clear
10:53 PM 37.0 °F - 32.0 °F 82% 29.96 in 10.0 mi Calm Calm - N/A   Clear
11:53 PM 34.0 °F 28.8 °F 30.0 °F 85% 29.95 in 10.0 mi SSW 5.8 mph - N/A   Clear